JP7FSO Weather Reports


Display with metric or nautical units.
time (UTC)temp
F
wind
direction
speed
MPH
gust
MPH
rain 1hr
in
rain 24hr
in
rain mn
in
humidity
%
barometer
mb
20190120043029 50 250 0.0 0.0 0.00 0.00 0.00 43 995.3
20190120041532 50 250 0.0 0.0 0.00 0.00 0.00 42 995.7
20190120040035 49 250 0.0 0.0 0.00 0.00 0.00 44 996.3
20190120034526 48 250 0.0 0.0 0.00 0.00 0.00 43 996.5
20190120033011 47 250 1.0 0.0 0.00 0.00 0.00 45 997.0
20190120031506 46 250 0.0 0.0 0.00 0.00 0.00 48 998.2
20190120030013 46 250 1.0 0.0 0.00 0.00 0.00 49 998.5
20190120024633 45 250 1.0 0.0 0.00 0.00 0.00 49 998.5
20190120023144 43 250 0.0 0.0 0.00 0.00 0.00 51 999.2
20190120021711 41 250 1.0 0.0 0.00 0.00 0.00 54 999.7
20190120020240 40 250 0.0 0.0 0.00 0.00 0.00 59 1000.1
20190120014623 39 250 0.0 0.0 0.00 0.00 0.00 60 1000.6
20190120013138 39 250 0.0 0.0 0.00 0.00 0.00 62 1001.1
20190120011701 38 250 1.0 0.0 0.00 0.00 0.00 63 1001.7
20190120010103 37 250 0.0 0.0 0.00 0.00 0.00 67 1002.1
20190120004613 36 250 0.0 0.0 0.00 0.00 0.00 69 1002.6
20190120003101 36 250 0.0 0.0 0.00 0.00 0.00 74 1002.6
20190120001623 35 250 0.0 0.0 0.00 0.00 0.00 78 1002.9
20190120000208 33 250 0.0 0.0 0.00 0.00 0.00 81 1003.1
20190119234712 32 250 0.0 0.0 0.00 0.00 0.00 82 1003.3
20190119233059 31 250 0.0 0.0 0.00 0.00 0.00 82 1003.6
20190119231643 30 250 0.0 0.0 0.00 0.00 0.00 82 1003.8
20190119230047 29 250 0.0 0.0 0.00 0.00 0.00 81 1004.1
20190119224526 28 250 0.0 0.0 0.00 0.00 0.00 81 1004.1
20190119223058 28 250 0.0 0.0 0.00 0.00 0.00 81 1004.2
20190119221535 27 250 0.0 0.0 0.00 0.00 0.00 80 1004.2
20190119220029 27 250 0.0 0.0 0.00 0.00 0.00 80 1004.3
20190119214513 27 250 0.0 0.0 0.00 0.00 0.00 80 1004.3
20190119213033 27 250 0.0 0.0 0.00 0.00 0.00 80 1004.3
20190119211513 27 250 0.0 0.0 0.00 0.00 0.00 79 1004.8
20190119210012 26 250 0.0 0.0 0.00 0.00 0.00 78 1004.7
20190119204509 26 250 0.0 0.0 0.00 0.00 0.00 77 1005.2
20190119203026 26 250 0.0 0.0 0.00 0.00 0.00 76 1005.6
20190119201507 26 250 0.0 0.0 0.00 0.00 0.00 76 1005.8
20190119200006 27 250 0.0 0.0 0.00 0.00 0.00 75 1006.1
20190119193128 27 250 0.0 0.0 0.00 0.00 0.00 74 1006.4
20190119191655 27 250 0.0 0.0 0.00 0.00 0.00 74 1006.6
20190119190139 28 250 0.0 0.0 0.00 0.00 0.00 74 1006.6
20190119184700 28 250 0.0 0.0 0.00 0.00 0.00 73 1007.2
20190119183157 28 250 0.0 0.0 0.00 0.00 0.00 72 1007.3
20190119181721 28 250 0.0 0.0 0.00 0.00 0.00 72 1007.3
20190119180144 28 250 0.0 0.0 0.00 0.00 0.00 72 1007.9
20190119174713 28 250 0.0 0.0 0.00 0.00 0.00 71 1008.3
20190119173203 29 250 0.0 0.0 0.00 0.00 0.00 71 1008.4
20190119171622 29 250 0.0 0.0 0.00 0.00 0.00 70 1008.8
20190119170132 29 250 0.0 0.0 0.00 0.00 0.00 70 1009.1
20190119164617 29 250 0.0 0.0 0.00 0.00 0.00 70 1009.3
20190119163211 29 250 0.0 0.0 0.00 0.00 0.00 69 1009.5
20190119161644 30 250 0.0 0.0 0.00 0.00 0.00 69 1009.5
20190119160149 30 250 0.0 0.0 0.00 0.00 0.00 68 1009.8
20190119154621 30 250 0.0 0.0 0.00 0.00 0.00 67 1009.9
20190119153135 30 250 0.0 0.0 0.00 0.00 0.00 67 1010.1
20190119151557 31 250 0.0 0.0 0.00 0.00 0.00 66 1010.3
20190119150056 31 250 0.0 0.0 0.00 0.00 0.01 65 1010.5
20190119144602 31 250 0.0 0.0 0.00 0.00 0.01 64 1010.6
20190119143059 32 250 0.0 0.0 0.00 0.00 0.01 64 1010.9
20190119141555 32 250 0.0 0.0 0.00 0.00 0.01 64 1011.2
20190119140108 32 250 1.0 0.0 0.00 0.00 0.01 64 1011.5
20190119134610 32 250 0.0 0.0 0.00 0.00 0.01 63 1011.7
20190119133056 32 250 0.0 0.0 0.00 0.00 0.01 63 1011.5
20190119131546 33 250 0.0 0.0 0.00 0.00 0.01 61 1011.4
20190119130051 33 250 1.0 0.0 0.00 0.00 0.01 60 1011.5
20190119124547 34 250 0.0 0.0 0.00 0.00 0.01 57 1011.4
20190119123118 35 250 0.0 0.0 0.00 0.00 0.01 55 1011.5
20190119121541 37 250 0.0 0.0 0.00 0.00 0.01 53 1011.7
20190119120109 38 250 2.0 0.0 0.00 0.00 0.01 52 1011.6
20190119114544 38 255 2.0 0.0 0.00 0.00 0.01 51 1011.8
20190119113058 38 242 2.0 0.0 0.00 0.00 0.01 51 1011.9
20190119111545 38 251 2.0 0.0 0.00 0.00 0.01 51 1012.0
20190119110108 38 245 2.0 0.0 0.00 0.00 0.01 50 1012.0
20190119104555 38 248 2.0 0.0 0.00 0.00 0.01 51 1012.0
20190119103112 38 244 2.0 0.0 0.00 0.00 0.01 50 1012.0
20190119101524 38 243 1.0 0.0 0.00 0.00 0.01 50 1012.0
20190119100045 38 243 2.0 0.0 0.00 0.00 0.01 49 1012.0
20190119094544 39 240 2.0 0.0 0.00 0.00 0.01 48 1012.0
20190119093029 39 269 2.0 0.0 0.00 0.00 0.01 47 1012.0
20190119091552 39 245 2.0 0.0 0.00 0.00 0.01 47 1012.1
20190119090034 39 250 2.0 0.0 0.00 0.00 0.01 45 1012.1
20190119084526 39 278 3.0 0.0 0.00 0.00 0.01 45 1012.0
20190119083023 39 248 3.0 0.0 0.00 0.00 0.01 45 1012.0
20190119081546 40 250 3.0 0.0 0.00 0.00 0.01 45 1012.1
20190119080052 40 240 2.0 0.0 0.00 0.00 0.01 45 1012.0
20190119074544 40 254 2.0 0.0 0.00 0.00 0.01 44 1012.0
20190119073114 41 252 5.0 0.0 0.00 0.00 0.01 43 1012.0
20190119071529 41 263 4.0 0.0 0.00 0.00 0.01 40 1012.0
20190119070031 42 252 5.0 0.0 0.00 0.00 0.01 40 1012.0
20190119064553 42 250 4.0 0.0 0.00 0.00 0.01 39 1012.0
20190119063030 43 264 5.0 0.0 0.00 0.00 0.01 37 1011.8
20190119061525 43 259 4.0 0.0 0.00 0.00 0.01 37 1011.4
20190119060040 43 255 6.0 0.0 0.00 0.00 0.01 37 1011.4
20190119054517 44 239 6.0 0.0 0.00 0.00 0.01 36 1011.4
20190119053052 44 244 5.0 0.0 0.00 0.00 0.01 36 1011.3
20190119051526 44 251 6.0 0.0 0.00 0.00 0.01 35 1010.9
20190119050041 44 256 7.0 0.0 0.00 0.00 0.01 36 1010.9
20190119044521 45 236 5.0 0.0 0.00 0.00 0.01 34 1010.8